Regional Weather Roundup
Issued by NWS State College, PA

Home | Current Version | Previous Version | Graphics & Text | Print | Product List | Glossary On
Versions: 1 2 3 4 5 6 7 8 9 10 11 12 13 14 15 16 17 18 19 20 21 22 23 24 25 26 27 28 29 30 31 32 33 34 35 36 37 38 39 40 41 42 43 44 45 46 47 48 49 50
000
ASUS41 KCTP 291903
RWRCTP

REGIONAL WEATHER ROUNDUP
NATIONAL WEATHER SERVICE STATE COLLEGE PA
300 PM EDT FRI AUG 29 2014

Note: "fair" indicates few or no clouds below 12,000 feet with no
significant weather and/or obstructions to visibility.

* = STATION THAT DOES NOT REPORT PRECIPITATION /E.G. RAIN...SNOW...ETC/
    THUNDER OR FOG.

PAZ002>004-007>009-013>016-020>023-029>032-292000-
WESTERN PENNSYLVANIA

CITY           SKY/WX    TMP DP  RH WIND       PRES   REMARKS
ERIE           SUNNY     77  46  33 VRB6      30.14F
MEADVILLE      SUNNY     73  51  46 VRB3      30.16F
FRANKLIN*      SUNNY     73  52  46 SE6       30.17F
NEW CASTLE     LGT RAIN  76  51  41 CALM      30.14F
BEAVER COUNTY  SUNNY     77  50  38 S6        30.14F
BUTLER*        SUNNY     73  52  46 SE6       30.17F
PITTSBURGH INT MOSUNNY   78  51  38 VRB7      30.14F
PITTSBURGH     SUNNY     77  49  37 SE6       30.14F
INDIANA*       SUNNY     75  50  41 CALM      30.20F
LATROBE        SUNNY     75  54  46 CALM      30.15F
WASHINGTON CO* SUNNY     77  52  41 CALM      30.15F
$$

PAZ004>006-010>012-017>019-024>028-033>037-041-042-045-046-049>053-292000-
CENTRAL PENNSYLVANIA

CITY           SKY/WX    TMP DP  RH WIND       PRES   REMARKS
BRADFORD       SUNNY     68  47  46 SW7       30.19F
DUBOIS         NOT AVBL
CLEARFIELD     SUNNY     73  48  41 VRB3      30.19F
JOHNSTOWN      SUNNY     72  49  44 S8        30.19F
ALTOONA        SUNNY     73  52  47 S6        30.19F
STATE COLLEGE  SUNNY     72  52  49 VRB6      30.19F
WILLIAMSPORT   PTSUNNY   74  50  42 S5        30.17F
SELINSGROVE    PTSUNNY   74  53  48 CALM      30.19F
FT INDIANTOWN  MOSUNNY   75  51  43 E1        30.19F
CAPITAL CITY   SUNNY     75  50  41 NE6       30.18F
HARRISBURG     PTSUNNY   77  51  40 CALM      30.17F
YORK           SUNNY     76  51  41 CALM      30.18S
$$

PAZ038>040-043-044-047-048-054-055-060>062-067>071-292000-
EASTERN PENNSYLVANIA

CITY           SKY/WX    TMP DP  RH WIND       PRES   REMARKS
SCRANTON       MOSUNNY   75  51  43 VRB5      30.18F
MOUNT POCONO   SUNNY     72  50  45 E6        30.21F
ALLENTOWN      SUNNY     76  51  41 CALM      30.18F
QUAKERTOWN*    CLEAR     77  52  41 MISG      30.18F
READING        MOSUNNY   75  51  43 N3        30.17S
LANCASTER      MOSUNNY   75  50  41 CALM      30.18F
COATESVILLE    MOCLDY    73  54  49 N5        30.20S
POTTSTOWN      MOSUNNY   77  50  38 NW6       30.18F
BLUE BELL      SUNNY     79  50  36 CALM      30.16F
DOYLESTOWN     SUNNY     76  50  40 CALM      30.17F
WILLOW GROVE   NOT AVBL
NORTH PHILA    SUNNY     78  48  34 S7        30.18F
PHILADELPHIA   PTSUNNY   80  48  32 SE7       30.16F
$$


USA.gov is the U.S. government's official web portal to all federal, state and local government web resources and services.